Tracking 17143 objects as of 30-June-2015
HD Live streaming from Space Station

INTELSAT 903

Track INTELSAT 903 now!
INTELSAT 903 is classified as:


NORAD ID: 27403
Int'l Code: 2002-016A
Perigee: 35,779.0 km
Apogee: 35,808.8 km
Inclination: 0.0 °
Period: 1,436.1 minutes
Semi major axis: 42164 km
RCS: 28.8022 m2 (large)
Launch date: March 30, 2002
Source: International Telecommunications Satellite Organization (ITSO)

76 C-band, 22 Ku-band, broadcasting, business services, direct-to-home TV broadcasting, telecommunications, VSAT networks; Atlantic Ocean region.
Your satellite tracking list
Your tracking list is empty





NASA's NSSDC Master Catalog

Two Line Element Set (TLE):
1 27403U 02016A   15180.86679639 -.00000236  00000-0  00000+0 0  9995
2 27403 000.0216 319.5092 0003541 137.0974 098.5604 01.00271251 48496

Source of the keplerian elements: AFSPC

N2YO: 389